Tracking 31027 objects as of 19-Jul-2025
HD Live streaming from Space Station
objects crossing your sky now

CZ-3B R/B

Track CZ-3B R/B now!
10-day predictions


NORAD ID: 45864
Int'l Code: 2020-045B
Perigee: 183.7 km
Apogee: 16,510.7 km
Inclination: 28.3 °
Period: 296.2 minutes
Semi major axis: 14718 km
RCS: Unknown
Launch date: July 9, 2020
Source: People's Republic of China (PRC)
Launch site: Xichang Space Center, China (XSC)

Note: This is a ROCKET BODY
Your satellite tracking list
Your tracking list is empty




NASA's NSSDC Master Catalog

Two Line Element Set (TLE):
1 45864U 20045B   25198.04586007  .00135772 -99157-7  15775-2 0  9994
2 45864  28.3176  97.7921 5546528 152.8764 252.3682  4.86204937 59879
Source of the keplerian elements: AFSPC